Regional Weather Roundup
Issued by NWS State College, PA

Home | Current Version | Previous Version | Graphics & Text | Print | Product List | Glossary On
Versions: 1 2 3 4 5 6 7 8 9 10 11 12 13 14 15 16 17 18 19 20 21 22 23 24 25 26 27 28 29 30 31 32 33 34 35 36 37 38 39 40 41 42 43 44 45 46 47 48 49 50
000
ASUS41 KCTP 260203
RWRCTP

REGIONAL WEATHER ROUNDUP
NATIONAL WEATHER SERVICE STATE COLLEGE PA
1000 PM EDT WED APR 25 2018

Note: "fair" indicates few or no clouds below 12,000 feet with no
significant weather and/or obstructions to visibility.

* = STATION THAT DOES NOT REPORT PRECIPITATION /E.G. RAIN...SNOW...ETC/
    THUNDER OR FOG.

PAZ002>004-007>009-013>016-020>023-029>032-260300-
WESTERN PENNSYLVANIA

CITY           SKY/WX    TMP DP  RH WIND       PRES   REMARKS
ERIE           CLOUDY    41  36  82 W14       29.92R
MEADVILLE      CLOUDY    38  37  97 NW10G18   29.90S
FRANKLIN*      CLOUDY    39  37  92 NW8       29.89R
NEW CASTLE     MOCLDY    42  39  89 NW9       29.93R
BEAVER COUNTY  NOT AVBL
BUTLER*        CLOUDY    44  39  82 W8        29.91R
PITTSBURGH INT MOCLDY    47  40  76 NW12      29.91R
PITTSBURGH     CLOUDY    45  39  79 NW10G18   29.90R
INDIANA*       CLOUDY    46  41  81 NW10G20   29.91R
LATROBE        CLOUDY    46  41  81 NW17      29.90R
WASHINGTON CO* FAIR      46  39  76 NW7       29.95R
$$

PAZ004>006-010>012-017>019-024>028-033>037-041-042-045-046-049>053-260300-
CENTRAL PENNSYLVANIA

CITY           SKY/WX    TMP DP  RH WIND       PRES   REMARKS
BRADFORD       CLOUDY    43  39  86 W12       29.81R
DUBOIS         CLOUDY    44  39  82 W12       29.83R
CLEARFIELD     FAIR      48  40  73 W10G24    29.82R
JOHNSTOWN      CLOUDY    44  40  85 NW21G29   29.83R
ALTOONA        MOCLDY    53  45  74 NW18G28   29.81R
STATE COLLEGE  CLOUDY    54  46  76 NW10G20   29.78R
WILLIAMSPORT   CLOUDY    57  53  86 W8        29.72R
SELINSGROVE    CLOUDY    57  54  89 N3        29.73R
FT INDIANTOWN  CLOUDY    58  57  97 W5        29.72R
CAPITAL CITY   LGT RAIN  61  54  77 W6        29.72R
HARRISBURG     CLOUDY    57  55  93 NW6       29.72R
YORK           MOCLDY    55  55 100 CALM      29.73R
$$

PAZ038>040-043-044-047-048-054-055-060>062-067>071-260300-
EASTERN PENNSYLVANIA

CITY           SKY/WX    TMP DP  RH WIND       PRES   REMARKS
SCRANTON       CLOUDY    56  55  97 W3        29.70S
MOUNT POCONO   CLOUDY    54  54 100 NW9       29.69S
ALLENTOWN      CLOUDY    60  56  86 W5        29.68S
QUAKERTOWN*    CLOUDY    59  59 100 CALM      29.68F
READING        MOCLDY    59  58  96 W6        29.69S
LANCASTER      CLOUDY    59  56  89 W8        29.71R
COATESVILLE      N/A     59  57  94 NW7       29.71S
POTTSTOWN      CLOUDY    58  58 100 NW3       29.70S FOG
BLUE BELL      CLOUDY    59  59 100 CALM      29.70R
DOYLESTOWN     CLOUDY    60  58  92 NW9       29.67S
WILLOW GROVE   NOT AVBL
NORTH PHILA    CLOUDY    63  58  83 NW3       29.68S
PHILADELPHIA   CLOUDY    62  58  86 N9        29.68R
$$




USA.gov is the U.S. government's official web portal to all federal, state and local government web resources and services.